Location: Unspecified
(37.5808°N, 0.0000°E)
Time: 01:26:23
(UTC+00:00)

STRAND 1 - Visible Passes

Search period start: 05 April 2026 00:00
Search period end: 15 April 2026 00:00
Orbit: 761 x 775 km, 98.4° (Epoch: 28 March)

Date Brightness Start Highest point End Pass type
(mag) Time Alt. Az. Time Alt. Az. Time Alt. Az.
5 Apr ? 03:59:43 10° ESE 04:03:28 21° ENE 04:07:12 10° NNE visible
5 Apr ? 19:29:49 10° NW 19:31:45 12° WNW 19:33:40 10° W visible
6 Apr ? 05:01:09 10° SSE 05:06:13 85° ENE 05:11:18 10° NNW visible
6 Apr ? 18:52:03 10° NNW 18:56:13 26° WNW 19:00:22 10° WSW visible
7 Apr ? 04:25:46 10° SE 04:30:24 37° ENE 04:35:03 10° N visible
8 Apr ? 03:51:29 10° ESE 03:54:47 18° ENE 03:58:04 10° NNE visible
8 Apr ? 19:20:20 10° NNW 19:23:05 15° WNW 19:25:49 10° W visible
9 Apr ? 04:52:25 10° SSE 04:57:26 70° ENE 05:02:29 10° N visible
10 Apr ? 04:17:16 10° SE 04:21:40 31° ENE 04:26:05 10° N visible
11 Apr ? 03:43:23 10° E 03:46:06 15° ENE 03:48:48 10° NNE visible
11 Apr ? 19:11:04 10° NNW 19:14:24 18° WNW 19:17:43 10° WSW visible
12 Apr ? 04:43:44 10° SSE 04:48:40 57° ENE 04:53:38 10° N visible
13 Apr ? 04:08:49 10° ESE 04:12:57 26° ENE 04:17:05 10° NNE visible
14 Apr ? 03:35:33 10° E 03:37:25 12° ENE 03:39:17 10° NE visible
14 Apr ? 19:01:56 10° NNW 19:05:41 21° WNW 19:09:28 10° WSW visible
